Orbital Elements at Epoch 2459200.5 (2020-Dec-17.0) TDB
Reference: JPL 154 (heliocentric ecliptic J2000)
Element | Value | Uncertainty (1-sigma) | Units |
e | .4623734490270832 | 6.9791e-08 | |
a | 1.341999475141201 | 2.9309e-09 | au |
q | .7214945492276283 | 9.3597e-08 | au |
i | 28.30637117465684 | 9.5601e-06 | deg |
node | 185.6312489291286 | 6.3374e-06 | deg |
peri | 6.059938459024818 | 9.2843e-06 | deg |
M | 206.2638869589591 | 1.5055e-05 | deg |
tp | 2459442.993633805571 (2021-Aug-16.49363381) | 2.3745e-05 | TDB |
period | 567.8412602164647 1.55 | 1.8602e-06 5.093e-09 | d yr |
n | .6339799962101482 | 2.0769e-09 | deg/d |
Q | 1.962504401054773 | 4.286e-09 | au |
|
| | Orbit Determination Parameters
Additional Information
|